Location: Azat
(46.0765°N, 1.7600°E)
Time: 00:04:28
(UTC+00:00)

In-Cosmos 22 Rocket - Pass Details

Date: 09 April 2020
Orbit: 790 x 888 km, 81.2° (Epoch: 02 June)

Event Time Altitude Azimuth Distance (km) Brightness Sun altitude
Rises 20:21:30 0° 350° (N) 3,507 8.1 -18.1°
Reaches altitude 10° 20:23:59 10° 352° (N) 2,565 7.3 -18.5°
Maximum altitude 20:29:50 75° 78° (ENE) 920 4.2 -19.3°
Enters shadow 20:32:49 30° 159° (SSE) 1,522 5.1 -19.8°
